Showing default

OTTER PUP 2, 64537

Orbit data source: Space-Track

OTTER PUP 2, 64537 is a payload satellite owned by Starfish Space (US) in SSO that was launched on Mon, 23 Jun 2025 UTC via an FALCON 9 launch vehicle from the Air Force Western Test Range (AFWTR). Payload-class satellites include a variety of spacecraft equipped with specific instruments for various scientific and technological missions. These include communications satellites like Starlink; space stations such as the ISS; scientific satellites like the Hubble; Earth observation satellites from companies like Planet Labs, Umbra, and HawkEye 360; GPS; miniature CubeSats for education and research; and military/defense satellites.

Loading next visibility...
Identifier
64537, 2025-135K
Orbit
SSO
Country
Flag of USUS
Related business
Manufacturer
Starfish Space
Mission
Operational Commercial Technology
Bus & Motor
OTTER, EP
Mass
40 kg wet, 39 kg dry
Launch date (UTC)
2025-06-23 (1 year ago)
Launch vehicle
FALCON 9
Launch site
Air Force Western Test Range (AFWTR)
Object type
Payload
Rocket body
Debris
Shape & HBR
Box + 2 Pan, 0.6 m
Radar Cross Section
0.519 m², Medium (>0.1 m² and < 1m²)

Expand to show TLE details & history
Last TLE update: 21 hours ago

TLE from 21 hours ago
0 OTTER PUP 2
1 64537U 25135K   26207.26221395  .00005246  00000-0  22464-3 0  9996
2 64537  97.4746 322.6030 0004394  58.5153 301.6513 15.23215826 60827
Epoch: 2026-07-26T06:17Z
TLE epoch observation values (Epoch: 2026-07-26T06:17:35.285Z)
Latitude
0.00003°
Longitude
-75.75669°
Altitude
497.656 km
Speed
7.617 km/s
True Right ascension
21h 30m 24s
True Declination
0° 00' 00"
Sunlit
Object was in full shadow at epoch
Visualization orbit readout
Latitude
Unknown
Longitude
Unknown
Altitude
Unknown
Speed
Unknown
Apparent Right ascension
Unknown
Apparent Declination
Unknown
Sunlit
N/A
Visualization observer readout
Local Sidereal Time
16:33:15
Azimuth
Unknown
Elevation
Unknown
Doppler factor
Unknown
Orbital elements
Apogee altitude
496.132 km
Perigee altitude
490.093 km
Semi-major axis
6,871.25 km
Eccentricity
0.00044
Inclination
97.4746°
RAAN
322.603°
Arg. of periapsis
58.5153°
True anomaly
301.60843°
Mean anomaly
301.6513°
Eccentric anomaly
301.62986°
Mean motion
3.81057 °/min
Orbital period
94.47 mins
BSTAR
0.00022464
Loading maneuver chart data...
Computing Atmospheric mass density...
Loading historical data...
Loading historical data...
Loading historical data...
Loading historical data...
Loading historical data...
Loading historical data...
Loading historical data...

Documentation

Showing up to 5 results
|